Location: Newark
(38.4486°N, 122.7047°W)
Time: 04:04:58
(UTC+00:00)

N. Korean satellite - Visible Passes

Search period start: 25 September 2020 00:00
Search period end: 05 October 2020 00:00
Orbit: 455 x 503 km, 97.2° (Epoch: 24 September)

Date Brightness Start Highest point End Pass type
(mag) Time Alt. Az. Time Alt. Az. Time Alt. Az.
25 Sep 8.6 13:14:12 10° NNE 13:17:30 32° E 13:20:44 10° SSE visible
26 Sep 9.8 12:49:09 10° NE 12:51:20 15° E 12:53:29 10° SE visible
28 Sep 7.5 13:29:15 10° NNE 13:32:48 53° E 13:36:16 10° S visible
29 Sep 9.3 13:03:45 10° NE 13:06:41 23° E 13:09:35 10° SSE visible
30 Sep 10.2 12:39:27 10° ENE 12:40:28 11° E 12:41:27 10° ESE visible
02 Oct 8.3 13:18:37 10° NNE 13:21:58 37° E 13:25:14 10° SSE visible
03 Oct 9.7 12:53:23 10° NE 12:55:48 17° E 12:58:10 10° SE visible
